Flag for Switzerland Weather past 2 weeks in Winterthur, Switzerland

Now
48 °F

Passing clouds.


Feels Like: 47 °F
Forecast: 30 / 41 °F
Wind: 3 mph from Northeast

Location: Zurich-Kloten

Current Time: Mar 3, 2015 at 1:15:10 PM

Latest Report: Mar 3, 2015 at 12:20 PM


Visibility: N/A

Pressure: 30.21 "Hg

Humidity: 46%

Dew point: 28 °F

Location of WinterthurLocation

Historic Weather in Winterthur — Graph

°F

Winterthur temperature yesterday

Maximum temperature yesterday: 50 °F (at 3:20 AM)
Minimum temperature yesterday: 39 °F (at 11:20 PM)
Average temperature yesterday: 45 °F

Past Weeks' High & Low Weather Summary

 TemperatureHumidityPressure
High52 °F (Feb 20, 1:50 PM)100% (Feb 16, 6:50 PM)30.69 "Hg (Feb 16, 6:50 PM)
Low23 °F (Feb 20, 7:20 AM)35% (Feb 20, 3:20 PM)29.53 "Hg (Feb 21, 10:50 AM)
Average36 °F84%30.04 "Hg
* Reported Feb 16 11:20 AM — Mar 3 11:50 AM, Winterthur, Weather by CustomWeather, © 2015

Note: Actual official high and low records may vary slightly from our data, if they occured in-between our weather recording intervals... More about our weather records

Advertising

Winterthur weather history for previous 24 hours

 ConditionsComfort  
Time TempWeatherWind HumidityBarometerVisibility
11:50 AM
Tue, Mar 3
46 °FSunny.2 mph50%30.24 "Hg10 mi
11:20 AM46 °FPassing clouds.3 mph53%30.24 "HgN/A
10:50 AM43 °FPartly sunny.3 mph61%30.24 "HgN/A
10:20 AM43 °FPartly sunny.5 mph66%30.24 "HgN/A
9:50 AM41 °FPassing clouds.3 mph70%30.24 "HgN/A
9:20 AM39 °FSunny.3 mph70%30.24 "Hg10 mi
8:50 AM36 °FSunny.3 mph87%30.24 "Hg10 mi
8:20 AM34 °FSunny.2 mph87%30.24 "Hg10 mi
7:50 AM32 °FSunny.2 mph87%30.24 "Hg10 mi
7:20 AM30 °FSunny.3 mph93%30.24 "Hg10 mi
6:50 AM30 °FClear.3 mph93%30.24 "Hg10 mi
6:20 AM30 °FClear.2 mph93%30.24 "Hg10 mi
5:50 AM30 °FClear.3 mph93%30.21 "Hg10 mi
5:20 AM32 °FPassing clouds.3 mph87%30.21 "HgN/A
4:50 AM30 °FPassing clouds.3 mph93%30.24 "HgN/A
4:20 AM32 °FPassing clouds.3 mph87%30.21 "HgN/A
3:50 AM32 °FPassing clouds.3 mph87%30.21 "HgN/A
3:20 AM34 °FPassing clouds.2 mph81%30.21 "HgN/A
2:50 AM32 °FPassing clouds.3 mph87%30.21 "HgN/A
2:20 AM34 °FPassing clouds.2 mph81%30.21 "HgN/A
1:50 AM36 °FPassing clouds.1 mph75%30.21 "HgN/A
12:50 AM36 °FPartly cloudy.6 mph75%30.21 "HgN/A
12:20 AM37 °FPassing clouds.3 mph65%30.21 "HgN/A
11:50 PM
Mon, Mar 2
39 °FPassing clouds.9 mph61%30.18 "HgN/A
11:20 PM39 °FPassing clouds.13 mph61%30.18 "HgN/A
10:50 PM41 °FClear.15 mph61%30.15 "Hg10 mi
10:20 PM41 °FClear.12 mph66%30.15 "Hg10 mi
9:50 PM41 °FPassing clouds.16 mph66%30.12 "HgN/A
9:20 PM41 °FPassing clouds.14 mph76%30.09 "HgN/A
8:50 PM41 °FPassing clouds.15 mph76%30.09 "HgN/A
8:20 PM43 °FSprinkles. Partly cloudy.16 mph71%30.07 "HgN/A
7:50 PM43 °FScattered showers. Partly cloudy.18 mph71%30.04 "HgN/A
7:20 PM43 °FPassing clouds.7 mph71%30.01 "HgN/A
6:50 PM41 °FPassing clouds.6 mph76%29.98 "HgN/A
6:20 PM43 °FSprinkles. Passing clouds.17 mph76%29.98 "HgN/A
5:50 PM45 °FSprinkles. Scattered clouds.12 mph71%29.95 "HgN/A
5:20 PM43 °FScattered clouds.10 mph81%29.95 "HgN/A
4:50 PM48 °FSprinkles. Scattered clouds.15 mph62%29.92 "HgN/A
4:20 PM48 °FScattered showers. Scattered clouds.15 mph66%29.92 "HgN/A
3:50 PM46 °FScattered showers. Scattered clouds.17 mph66%29.92 "HgN/A
3:20 PM45 °FScattered clouds.14 mph81%29.89 "HgN/A
2:50 PM45 °FBroken clouds.12 mph81%29.89 "HgN/A
2:20 PM45 °FSprinkles. Broken clouds.18 mph81%29.89 "Hg5 mi
1:50 PM45 °FBroken clouds.13 mph81%29.89 "HgN/A
1:20 PM45 °FBroken clouds.13 mph81%29.89 "HgN/A
Weather by CustomWeather, © 2015

See weather overviewHow to use our weather pages